SCP
0 0 0 0 0 0 0 0 0 0 0 0 0 0 0 0 0 0 0 0 0 0 0 0 0 0 0 0 0 0 0 0 0 0 0 0 0 0 0 0 0 0 0
0 0 0 0 0 0 0 0 0 0 0 0 0 0 0 0 0 0 0 0 0 0 0 0 0 0 0 0 0 0 0 0 0 0 0 0 0 0 0 0 0 0 0
0 0 0 0 0 0 0 0 0 0 0 0 0 0 0 0 0 0 0 0 0 0 0 0 0 0 0 0 0 0 0 0 0 0 0 0 0 0 0 0 0 0 0
0 0 0 0 0 0 0 0 0 0 0 0 0 0 0 0 0 0 0 0 0 0 0 0 -0 0 0 0 0 0 0 0 0 0 0 0 0 0 0 0 0 0 0
0 0 1 0 0 0 0 0 0 0 0 0 0 0 0 0 0 0 0 0 0 0 0 0 0 0 0 0 0 0 0 0 0 0 0 0 0 0 0 0 0 0 0
1 1 1 1 1 1 1 0 0 0 0 0 0 0 0 0 0 0 0 0 0 0 0 0 0 0 0 0 0 0 0 0 0 0 0 0 0 0 0 0 0 0 0
1 1 1 1 1 1 1 1 0 0 0 0 0 0 0 0 0 0 0 0 0 0 0 0 0 0 0 0 0 0 0 0 0 0 0 0 0 0 0 0 0 0 0
1 1 1 1 2 2 1 1 1 1 0 0 0 0 0 0 0 0 0 0 0 0 0 0 0 0 0 0 0 0 0 0 0 0 0 0 0 0 0 0 0 0 0
1 1 2 2 2 1 1 1 1 1 1 0 0 0 0 0 0 0 0 0 0 0 0 0 0 0 0 0 0 0 0 0 0 0 0 0 0 0 0 0 0 0 0
1 1 1 3 0 0 0 0 0 0 0 0 0 0 0 0 0 0 0 0 0 0 0 0 0 0 0 0 0 0 0 0 0 0 0 0 0 0 0 0 0 0 0
1 0 1 0 0 0 0 0 0 0 0 0 1 0 0 0 0 0 0 0 0 0 0 0 0 0 0 0 0 0 0 0 0 0 0 0 0 0 0 0 0 0 0
0 0 0 0 0 0 0 -0 0 0 1 1 1 0 0 0 0 0 0 0 0 0 0 0 0 0 0 0 0 0 0 0 0 0 0 0 0 0 0 0 0 0 0
0 0 0 0 0 0 0 0 0 0 1 1 1 1 0 0 0 0 0 0 0 0 0 0 0 0 0 0 0 0 0 0 0 0 0 0 0 0 0 0 0 0 0
0 0 0 0 0 0 0 0 0 0 0 0 1 1 1 0 0 0 0 0 0 0 0 0 0 0 0 0 0 0 0 0 0 0 0 0 0 0 0 0 0 0 0
0 0 0 0 0 0 0 0 0 0 0 1 1 1 1 0 0 0 0 0 0 0 0 0 0 0 0 0 0 0 0 0 0 0 0 0 0 0 0 0 0 0 0
0 0 0 0 0 0 0 0 0 0 0 0 1 1 0 1 0 0 0 0 0 0 0 0 0 0 0 0 0 0 0 0 0 0 0 0 0 0 0 0 0 0 0
0 0 0 0 0 0 0 0 0 0 0 0 0 0 0 0 0 0 0 0 0 0 0 0 0 0 0 0 0 0 0 0 0 0 0 0 0 0 0 0 0 0 0
0 0 0 0 0 0 0 0 0 0 0 0 -0 0 0 0 0 0 0 0 0 0 0 0 0 0 0 0 0 0 0 0 0 0 0 0 0 0 0 0 0 0 0
0 0 0 0 0 0 0 0 0 0 0 -0 -0 0 -0 0 0 0 0 0 0 0 0 0 0 0 0 0 0 0 0 0 0 0 0 0 0 0 0 0 0 0 0
0 0 0 0 0 0 0 0 0 0 0 0 0 0 0 0 0 0 -0 0 0 0 0 0 0 0 0 0 0 0 0 0 0 0 0 0 0 0 0 0 0 0 0
0 0 0 0 0 0 0 0 0 0 0 0 0 0 -0 0 0 -0 -0 0 0 0 0 0 0 0 0 0 0 0 0 0 0 0 0 0 0 0 0 0 0 0 0
0 0 0 0 0 0 0 0 0 0 0 0 0 0 0 0 -0 -0 0 0 0 0 0 0 0 0 0 0 0 0 0 0 0 0 0 0 0 0 0 0 0 0 0
0 0 0 0 0 0 0 0 0 0 0 0 0 0 0 0 -0 0 0 0 0 0 0 0 0 0 0 0 0 0 0 0 0 0 0 0 0 0 0 0 0 0 0
0 0 0 0 0 0 0 0 0 0 0 0 0 0 0 0 0 0 0 -0 0 0 0 0 0 0 0 0 0 0 0 0 0 0 0 0 0 0 0 0 0 0 0
0 0 0 0 0 0 0 0 0 0 0 0 0 0 0 0 0 0 0 0 0 0 0 0 0 0 0 0 0 0 0 0 0 0 0 0 0 0 0 0 0 0 0
0 0 0 0 0 0 0 0 0 0 0 0 0 0 0 0 0 0 0 0 0 0 0 0 0 0 0 0 -0 0 0 0 0 0 0 0 0 0 0 0 0 -0 -0
Wind_Speed_500mb
32 28 22 16 16 15 15 14 13 9 8 11 13 19 16 12 15 20 19 21 19 22 17 20 19 21 18 20 23 22 19 19 20 21 24 25 22 25 33 37 39 39 34
35 34 27 24 25 26 22 25 22 20 17 16 21 22 19 21 26 26 26 20 13 19 21 23 18 18 19 19 22 22 20 19 21 22 24 27 20 27 31 35 42 41 38
27 38 37 34 28 30 30 27 25 24 22 28 27 26 28 32 26 30 26 21 19 18 21 22 18 23 20 23 26 18 9 13 17 20 24 28 23 25 29 32 36 41 43
32 30 38 41 36 36 38 36 29 29 29 28 29 35 36 33 28 35 37 30 29 25 22 11 8 18 28 25 22 19 18 19 23 25 27 21 25 25 30 33 39 44 39
38 41 39 39 38 43 41 33 35 36 37 34 38 35 41 30 38 40 40 36 29 30 20 6 11 15 22 23 19 18 22 27 28 32 33 22 26 26 30 32 40 47 36
51 48 48 43 40 42 48 45 40 42 39 37 35 37 41 43 34 34 37 39 40 32 25 13 16 14 19 20 13 15 19 25 37 29 27 29 26 25 30 37 39 43 43
57 56 57 50 50 42 49 56 46 45 46 40 40 42 44 42 39 42 42 35 29 22 17 21 16 13 19 17 9 13 16 21 28 22 22 22 25 27 34 37 38 39 39
61 65 62 61 54 51 49 57 55 48 48 41 47 45 45 48 47 38 31 24 21 17 18 15 18 13 22 16 19 25 21 20 22 17 18 16 15 23 33 39 39 40 39
54 57 67 61 59 49 54 52 51 47 43 40 37 39 20 23 28 21 23 24 20 17 20 18 14 19 25 17 25 25 18 16 15 16 12 11 12 22 29 36 39 40 35
54 69 67 65 66 52 35 39 43 43 46 42 40 43 42 50 37 20 11 18 18 17 18 15 17 20 23 23 27 22 15 14 13 11 8 8 14 22 26 37 38 39 35
51 49 48 58 53 7 50 45 26 36 40 43 41 39 43 45 45 45 29 20 23 24 23 22 23 23 20 21 25 21 18 17 12 10 9 7 16 23 29 34 36 35 31
37 39 49 36 47 53 43 31 48 53 62 43 40 41 35 36 42 37 39 31 35 27 29 28 29 26 21 18 20 22 17 7 8 9 11 13 22 24 33 31 32 30 30
38 40 40 42 37 32 33 44 64 52 64 52 43 40 41 34 36 39 34 36 37 34 32 36 36 28 23 15 18 18 12 11 10 9 14 21 22 28 25 29 28 30 30
34 32 29 24 22 22 23 40 68 53 54 64 48 38 44 36 36 39 41 35 32 37 38 41 40 28 25 18 20 18 10 10 9 14 21 21 23 25 22 23 26 28 25
32 28 24 24 23 19 22 20 47 82 72 61 39 38 37 33 39 46 43 44 49 40 44 45 43 36 25 22 19 14 10 13 19 19 18 18 22 22 19 18 23 22 25
32 29 20 15 19 22 16 20 34 52 63 69 45 37 40 30 37 46 39 40 42 45 44 49 43 32 26 22 22 13 12 14 18 16 10 11 15 16 15 15 17 22 24
33 35 28 19 18 18 22 28 38 47 56 72 61 46 45 30 31 46 45 41 43 42 37 38 43 35 29 23 22 16 13 17 13 12 9 11 14 17 12 13 16 20 23
30 31 30 24 18 13 17 18 25 51 62 70 68 58 54 39 40 38 44 41 50 50 47 41 45 39 29 22 22 18 16 14 13 11 9 11 14 15 13 10 13 17 23
35 35 30 25 31 23 19 21 17 18 47 71 63 59 79 64 64 47 48 56 54 55 50 43 40 41 30 24 22 22 21 20 18 14 14 11 15 15 12 10 11 16 22
33 35 35 27 27 37 22 19 19 21 27 49 61 75 76 70 62 68 60 62 56 57 53 49 39 38 32 27 25 25 23 19 17 22 21 18 16 15 9 10 12 16 21
34 35 29 33 33 37 39 30 28 25 21 30 48 62 81 68 65 81 73 69 61 63 62 58 51 44 34 30 37 27 25 21 18 19 24 23 22 16 9 14 18 16 21
27 24 29 25 24 29 37 37 31 28 20 19 20 30 63 70 75 85 81 89 47 56 69 74 63 57 36 38 40 34 35 29 22 20 20 25 24 17 11 12 17 12 18
50 44 38 28 25 23 27 37 39 38 36 34 29 29 38 50 78 72 87 94 85 72 78 81 67 59 46 45 49 45 44 34 23 18 16 21 22 16 12 13 13 7 12
57 54 55 54 47 34 32 34 41 45 51 48 47 45 37 42 51 54 83 115 96 87 89 76 67 71 54 41 44 41 40 35 30 21 16 17 21 16 13 13 13 5 7
54 57 58 58 54 56 50 38 40 47 54 50 54 50 50 41 40 47 54 79 95 119 104 92 90 70 61 38 37 52 52 47 33 25 17 16 18 15 13 11 16 10 4
54 53 53 53 54 58 58 56 55 51 59 64 59 56 57 54 47 41 51 79 93 106 101 81 88 84 73 81 58 59 66 52 35 25 19 20 18 14 11 14 17 14 6
Wind_Direction_500mb
228 231 219 217 230 240 251 263 262 277 307 278 278 308 296 290 277 281 282 302 287 311 304 307 320 330 322 313 301 295 300 309 323 329 331 335 341 357 0 5 358 353 348
241 246 237 238 237 246 248 254 263 261 279 277 298 298 298 285 281 278 292 274 280 290 298 307 314 334 326 332 305 291 299 308 307 317 326 323 323 342 352 357 355 349 344
240 244 251 250 251 251 253 257 251 257 272 259 263 281 289 281 280 276 279 277 270 286 296 302 313 321 343 336 329 315 332 324 311 312 326 337 315 329 338 342 346 343 345
246 246 253 256 245 250 255 258 258 261 271 275 274 277 285 287 272 280 280 277 281 282 291 286 327 302 331 339 330 306 299 298 305 308 315 326 313 313 335 340 346 346 339
257 252 255 266 256 247 255 260 260 264 272 275 270 285 282 289 295 280 288 277 276 283 271 271 292 303 321 333 326 303 302 302 306 314 313 296 309 322 333 334 345 341 338
262 258 261 267 267 264 254 251 260 258 265 263 265 272 270 282 289 274 288 280 286 272 261 252 266 302 316 329 321 297 285 283 276 299 312 302 298 321 332 338 340 340 343
262 259 262 268 263 268 259 246 252 258 262 263 270 271 277 285 284 282 283 279 270 260 261 247 253 272 289 323 331 335 303 285 281 297 306 301 282 328 332 338 340 342 343
265 262 266 271 264 266 274 250 247 255 259 256 263 272 287 284 289 290 260 260 264 265 266 221 229 243 287 295 323 323 309 288 284 286 289 294 294 322 329 333 334 339 340
262 265 265 268 270 272 280 271 261 265 267 266 270 271 281 288 310 298 253 236 243 253 273 250 231 264 285 291 309 313 299 283 273 266 261 268 304 319 327 327 335 338 340
258 256 265 271 257 252 261 265 266 273 281 281 281 280 276 280 278 301 290 197 226 236 267 251 253 279 281 298 315 307 286 274 251 208 240 277 302 312 327 327 334 339 338
260 267 266 263 255 304 3 324 294 287 274 277 282 279 285 279 262 261 271 227 229 234 248 238 251 263 268 292 312 305 288 258 234 189 238 276 303 311 322 327 333 340 341
276 276 270 271 268 265 261 214 256 276 268 259 263 262 271 278 272 261 253 239 233 225 220 226 242 246 260 285 303 295 288 237 186 222 250 278 296 316 322 322 332 340 337
322 321 316 304 306 295 286 255 234 270 269 251 252 261 266 274 262 269 255 234 222 218 210 222 233 244 262 276 293 286 254 221 228 248 266 280 299 314 317 324 329 340 338
357 348 348 336 307 303 298 274 238 262 259 242 250 258 257 265 247 250 258 236 212 213 221 226 229 236 253 273 286 285 251 200 236 260 268 290 308 315 317 321 335 339 332
1 351 353 341 322 333 310 257 248 251 253 235 252 264 263 270 262 245 255 246 229 202 209 226 232 241 241 258 272 265 235 225 236 255 278 298 307 312 311 324 339 342 345
8 10 5 340 324 307 290 259 246 252 248 235 250 259 259 256 259 245 258 236 233 233 219 229 233 241 234 250 262 254 234 232 239 242 270 289 304 303 308 328 343 349 350
359 1 3 348 334 334 306 293 257 241 245 240 244 258 266 260 253 238 248 241 228 229 230 223 222 220 226 239 253 251 243 243 237 217 251 284 293 290 291 319 347 359 353
343 346 351 347 339 332 334 325 276 249 245 242 238 238 250 251 237 234 251 253 226 242 243 243 223 218 225 241 246 246 239 250 246 214 241 267 282 287 288 308 350 357 353
329 329 329 339 328 331 325 341 332 320 253 243 238 243 248 245 234 242 235 254 237 235 241 243 229 224 218 229 244 238 238 236 236 215 224 250 280 277 286 310 334 346 1
316 323 322 314 314 318 318 308 329 327 298 244 239 243 251 243 232 230 236 247 238 226 230 233 228 223 222 219 235 236 240 251 246 230 228 241 259 280 292 311 327 346 1
303 299 300 308 307 310 311 313 298 302 310 256 256 246 240 237 240 230 247 249 240 237 223 220 221 226 225 231 238 238 235 250 258 253 232 238 251 264 284 323 317 342 358
301 301 288 277 304 298 295 298 296 292 288 294 289 261 251 257 243 235 251 240 243 230 225 225 224 228 225 245 241 239 238 239 249 264 244 233 246 256 273 282 285 332 356
294 291 288 290 270 255 266 275 278 275 275 271 264 273 276 251 240 251 239 238 240 229 224 227 223 230 236 239 245 237 235 236 252 276 251 234 239 247 259 258 268 315 346
293 290 285 283 280 274 255 250 259 275 271 272 270 265 269 267 258 254 238 236 237 235 226 228 228 233 249 243 244 256 245 227 241 248 257 245 238 238 239 241 244 241 328
297 292 287 283 279 273 261 253 243 250 262 271 267 262 262 265 268 267 258 245 239 234 234 226 225 231 231 231 248 251 226 220 233 240 250 244 235 226 219 213 226 204 261
308 305 297 292 286 278 266 258 246 247 253 264 271 264 257 260 259 266 258 252 236 226 222 215 214 227 245 243 263 248 241 231 230 231 234 230 219 214 218 211 216 200 213
Wind_Speed_850mb
32 28 22 16 16 15 15 14 13 9 8 11 13 19 16 12 15 20 19 21 19 22 17 20 19 21 18 20 23 22 19 19 20 21 24 25 22 25 33 37 39 39 34
35 34 27 24 25 26 22 25 22 20 17 16 21 22 19 21 26 26 26 20 13 19 21 23 18 18 19 19 22 22 20 19 21 22 24 27 20 27 31 35 42 41 38
27 38 37 34 28 30 30 27 25 24 22 28 27 26 28 32 26 30 26 21 19 18 21 22 18 23 20 23 26 18 9 13 17 20 24 28 23 25 29 32 36 41 43
32 30 38 41 36 36 38 36 29 29 29 28 29 35 36 33 28 35 37 30 29 25 22 11 8 18 28 25 22 19 18 19 23 25 27 21 25 25 30 33 39 44 39
38 41 39 39 38 43 41 33 35 36 37 34 38 35 41 30 38 40 40 36 29 30 20 6 11 15 22 23 19 18 22 27 28 32 33 22 26 26 30 32 40 47 36
51 48 48 43 40 42 48 45 40 42 39 37 35 37 41 43 34 34 37 39 40 32 25 13 16 14 19 20 13 15 19 25 37 29 27 29 26 25 30 37 39 43 43
57 56 57 50 50 42 49 56 46 45 46 40 40 42 44 42 39 42 42 35 29 22 17 21 16 13 19 17 9 13 16 21 28 22 22 22 25 27 34 37 38 39 39
61 65 62 61 54 51 49 57 55 48 48 41 47 45 45 48 47 38 31 24 21 17 18 15 18 13 22 16 19 25 21 20 22 17 18 16 15 23 33 39 39 40 39
54 57 67 61 59 49 54 52 51 47 43 40 37 39 20 23 28 21 23 24 20 17 20 18 14 19 25 17 25 25 18 16 15 16 12 11 12 22 29 36 39 40 35
54 69 67 65 66 52 35 39 43 43 46 42 40 43 42 50 37 20 11 18 18 17 18 15 17 20 23 23 27 22 15 14 13 11 8 8 14 22 26 37 38 39 35
51 49 48 58 53 7 50 45 26 36 40 43 41 39 43 45 45 45 29 20 23 24 23 22 23 23 20 21 25 21 18 17 12 10 9 7 16 23 29 34 36 35 31
37 39 49 36 47 53 43 31 48 53 62 43 40 41 35 36 42 37 39 31 35 27 29 28 29 26 21 18 20 22 17 7 8 9 11 13 22 24 33 31 32 30 30
38 40 40 42 37 32 33 44 64 52 64 52 43 40 41 34 36 39 34 36 37 34 32 36 36 28 23 15 18 18 12 11 10 9 14 21 22 28 25 29 28 30 30
34 32 29 24 22 22 23 40 68 53 54 64 48 38 44 36 36 39 41 35 32 37 38 41 40 28 25 18 20 18 10 10 9 14 21 21 23 25 22 23 26 28 25
32 28 24 24 23 19 22 20 47 82 72 61 39 38 37 33 39 46 43 44 49 40 44 45 43 36 25 22 19 14 10 13 19 19 18 18 22 22 19 18 23 22 25
32 29 20 15 19 22 16 20 34 52 63 69 45 37 40 30 37 46 39 40 42 45 44 49 43 32 26 22 22 13 12 14 18 16 10 11 15 16 15 15 17 22 24
33 35 28 19 18 18 22 28 38 47 56 72 61 46 45 30 31 46 45 41 43 42 37 38 43 35 29 23 22 16 13 17 13 12 9 11 14 17 12 13 16 20 23
30 31 30 24 18 13 17 18 25 51 62 70 68 58 54 39 40 38 44 41 50 50 47 41 45 39 29 22 22 18 16 14 13 11 9 11 14 15 13 10 13 17 23
35 35 30 25 31 23 19 21 17 18 47 71 63 59 79 64 64 47 48 56 54 55 50 43 40 41 30 24 22 22 21 20 18 14 14 11 15 15 12 10 11 16 22
33 35 35 27 27 37 22 19 19 21 27 49 61 75 76 70 62 68 60 62 56 57 53 49 39 38 32 27 25 25 23 19 17 22 21 18 16 15 9 10 12 16 21
34 35 29 33 33 37 39 30 28 25 21 30 48 62 81 68 65 81 73 69 61 63 62 58 51 44 34 30 37 27 25 21 18 19 24 23 22 16 9 14 18 16 21
27 24 29 25 24 29 37 37 31 28 20 19 20 30 63 70 75 85 81 89 47 56 69 74 63 57 36 38 40 34 35 29 22 20 20 25 24 17 11 12 17 12 18
50 44 38 28 25 23 27 37 39 38 36 34 29 29 38 50 78 72 87 94 85 72 78 81 67 59 46 45 49 45 44 34 23 18 16 21 22 16 12 13 13 7 12
57 54 55 54 47 34 32 34 41 45 51 48 47 45 37 42 51 54 83 115 96 87 89 76 67 71 54 41 44 41 40 35 30 21 16 17 21 16 13 13 13 5 7
54 57 58 58 54 56 50 38 40 47 54 50 54 50 50 41 40 47 54 79 95 119 104 92 90 70 61 38 37 52 52 47 33 25 17 16 18 15 13 11 16 10 4
54 53 53 53 54 58 58 56 55 51 59 64 59 56 57 54 47 41 51 79 93 106 101 81 88 84 73 81 58 59 66 52 35 25 19 20 18 14 11 14 17 14 6
Wind_Direction_850mb
228 231 219 217 230 240 251 263 262 277 307 278 278 308 296 290 277 281 282 302 287 311 304 307 320 330 322 313 301 295 300 309 323 329 331 335 341 357 0 5 358 353 348
241 246 237 238 237 246 248 254 263 261 279 277 298 298 298 285 281 278 292 274 280 290 298 307 314 334 326 332 305 291 299 308 307 317 326 323 323 342 352 357 355 349 344
240 244 251 250 251 251 253 257 251 257 272 259 263 281 289 281 280 276 279 277 270 286 296 302 313 321 343 336 329 315 332 324 311 312 326 337 315 329 338 342 346 343 345
246 246 253 256 245 250 255 258 258 261 271 275 274 277 285 287 272 280 280 277 281 282 291 286 327 302 331 339 330 306 299 298 305 308 315 326 313 313 335 340 346 346 339
257 252 255 266 256 247 255 260 260 264 272 275 270 285 282 289 295 280 288 277 276 283 271 271 292 303 321 333 326 303 302 302 306 314 313 296 309 322 333 334 345 341 338
262 258 261 267 267 264 254 251 260 258 265 263 265 272 270 282 289 274 288 280 286 272 261 252 266 302 316 329 321 297 285 283 276 299 312 302 298 321 332 338 340 340 343
262 259 262 268 263 268 259 246 252 258 262 263 270 271 277 285 284 282 283 279 270 260 261 247 253 272 289 323 331 335 303 285 281 297 306 301 282 328 332 338 340 342 343
265 262 266 271 264 266 274 250 247 255 259 256 263 272 287 284 289 290 260 260 264 265 266 221 229 243 287 295 323 323 309 288 284 286 289 294 294 322 329 333 334 339 340
262 265 265 268 270 272 280 271 261 265 267 266 270 271 281 288 310 298 253 236 243 253 273 250 231 264 285 291 309 313 299 283 273 266 261 268 304 319 327 327 335 338 340
258 256 265 271 257 252 261 265 266 273 281 281 281 280 276 280 278 301 290 197 226 236 267 251 253 279 281 298 315 307 286 274 251 208 240 277 302 312 327 327 334 339 338
260 267 266 263 255 304 3 324 294 287 274 277 282 279 285 279 262 261 271 227 229 234 248 238 251 263 268 292 312 305 288 258 234 189 238 276 303 311 322 327 333 340 341
276 276 270 271 268 265 261 214 256 276 268 259 263 262 271 278 272 261 253 239 233 225 220 226 242 246 260 285 303 295 288 237 186 222 250 278 296 316 322 322 332 340 337
322 321 316 304 306 295 286 255 234 270 269 251 252 261 266 274 262 269 255 234 222 218 210 222 233 244 262 276 293 286 254 221 228 248 266 280 299 314 317 324 329 340 338
357 348 348 336 307 303 298 274 238 262 259 242 250 258 257 265 247 250 258 236 212 213 221 226 229 236 253 273 286 285 251 200 236 260 268 290 308 315 317 321 335 339 332
1 351 353 341 322 333 310 257 248 251 253 235 252 264 263 270 262 245 255 246 229 202 209 226 232 241 241 258 272 265 235 225 236 255 278 298 307 312 311 324 339 342 345
8 10 5 340 324 307 290 259 246 252 248 235 250 259 259 256 259 245 258 236 233 233 219 229 233 241 234 250 262 254 234 232 239 242 270 289 304 303 308 328 343 349 350
359 1 3 348 334 334 306 293 257 241 245 240 244 258 266 260 253 238 248 241 228 229 230 223 222 220 226 239 253 251 243 243 237 217 251 284 293 290 291 319 347 359 353
343 346 351 347 339 332 334 325 276 249 245 242 238 238 250 251 237 234 251 253 226 242 243 243 223 218 225 241 246 246 239 250 246 214 241 267 282 287 288 308 350 357 353
329 329 329 339 328 331 325 341 332 320 253 243 238 243 248 245 234 242 235 254 237 235 241 243 229 224 218 229 244 238 238 236 236 215 224 250 280 277 286 310 334 346 1
316 323 322 314 314 318 318 308 329 327 298 244 239 243 251 243 232 230 236 247 238 226 230 233 228 223 222 219 235 236 240 251 246 230 228 241 259 280 292 311 327 346 1
303 299 300 308 307 310 311 313 298 302 310 256 256 246 240 237 240 230 247 249 240 237 223 220 221 226 225 231 238 238 235 250 258 253 232 238 251 264 284 323 317 342 358
301 301 288 277 304 298 295 298 296 292 288 294 289 261 251 257 243 235 251 240 243 230 225 225 224 228 225 245 241 239 238 239 249 264 244 233 246 256 273 282 285 332 356
294 291 288 290 270 255 266 275 278 275 275 271 264 273 276 251 240 251 239 238 240 229 224 227 223 230 236 239 245 237 235 236 252 276 251 234 239 247 259 258 268 315 346
293 290 285 283 280 274 255 250 259 275 271 272 270 265 269 267 258 254 238 236 237 235 226 228 228 233 249 243 244 256 245 227 241 248 257 245 238 238 239 241 244 241 328
297 292 287 283 279 273 261 253 243 250 262 271 267 262 262 265 268 267 258 245 239 234 234 226 225 231 231 231 248 251 226 220 233 240 250 244 235 226 219 213 226 204 261
308 305 297 292 286 278 266 258 246 247 253 264 271 264 257 260 259 266 258 252 236 226 222 215 214 227 245 243 263 248 241 231 230 231 234 230 219 214 218 211 216 200 213